sat.trackr.live / text

‹ back to catalog

YAOGAN-36 02A

NORAD 54042 · 2022-133A

PAYLOAD ACTIVE UNKNOWN

§ Identity

Operator
Country
PRC
Launch date
2022-10-14
Launch site
XICLF
Launch vehicle
Mass (kg)
RCS (m²)

External: N2YO · Heavens-Above · Gunter

§ Orbital elements

Epoch: 2026-05-25T01:00:52.115040Z

Period
94.53 min
Inclination
35.0059°
Eccentricity
0.0028393
Mean motion
15.23319147 rev/d
Perigee alt
476.3 km
Apogee alt
515.4 km
Semi-major
6,874.0 km
B*
4.0241e-4
RAAN
265.3293°
Arg perigee
347.3345°
Mean anomaly
12.6654°
Rev number
20,122

§ Raw data

YAOGAN-36 02A1 54042U 22133A   26145.04226985  .00009872  00000+0  40241-3 0  99992 54042  35.0059 265.3293 0028393 347.3345  12.6654 15.23319147201220

JSON: /api/v1/satellites/54042 · /tle

For live sub-satellite position, see the globe view (requires WebGL).

§ Visibility from observer

Set your observer location to see the next 7 days of passes ≥ 10°. The values pass through the URL so the page stays shareable.

No JS? Fill the form by hand. The geolocation button needs JavaScript.